Meteo Giornale » Osservazioni meteo Stati Uniti (USA) » New York City Central Park

ore: 08:51 - Osservazioni Meteo New York City Central Park
Lat. 40° 47' N Lon. 73° 58' W Alt. 47 metri s.l.m.

sereno America/New_York

3 °C

Sereno

Temp. 24 Ore

2 °C

6 °C

Sud-Ovest

14.8 Km/h

Dew point -4 °C

Umidità 59 %

Visibilità  10 Km

Il sole sorge alle ore 07:01

Il sole tramonta alle ore 16:30

Data e Ora Cielo e Fenomeni T °C DP °C Um. % Pres. hPa Vis. km Vento km/h
Oggi h: 08:51 sereno Sereno 3 -4 59 1024 10 SO 14.8
Oggi h: 07:51 sereno Sereno 2 -4 64 1023 10 N 0
Oggi h: 06:51 sereno Sereno 2 -4 64 1023 10 N 7.4
Oggi h: 05:51 sereno Sereno 2 -4 64 1023 10 N 7.4
Oggi h: 04:51 sereno Sereno 2 -4 64 1022 10 SO 13
Oggi h: 03:51 sereno Sereno 2 -4 64 1022 10 O 9.3
Oggi h: 02:51 sereno Sereno 3 -4 59 1022 10 N 7.4
Oggi h: 01:51 sereno Sereno 2 -4 64 1021 10 O 7.4
Oggi h: 00:51 sereno Sereno 3 -4 59 1021 10 N 11.1
Ieri h: 23:51 sereno Sereno 3 -4 59 1021 10 N 0
Ieri h: 22:51 sereno Sereno 3 -4 59 1020 10 O 13
Ieri h: 21:51 sereno Sereno 4 -4 55 1020 10 O/SO 20.3
Ieri h: 20:51 sereno Sereno 4 -4 55 1019 10 O/SO 14.8
Ieri h: 19:51 sereno Sereno 5 -4 52 1018 10 O/SO 20.3
Ieri h: 18:51 sereno Sereno 6 -3 52 1018 10 O/SO 14.8
Ieri h: 17:51 sereno Sereno 6 -3 52 1017 10 O/SO 16.7
Ieri h: 16:51 sereno Sereno 6 -3 52 1016 10 O 13
Ieri h: 15:51 molto_nuvoloso Molto Nuvoloso 6 -2 56 1015 10 O 20.3
Ieri h: 14:51 coperto Coperto 6 -1 60 1015 10 O 16.7
Ieri h: 13:51 coperto Coperto 6 -2 56 1014 10 N 9.3
Ieri h: 12:51 coperto Coperto 5 -2 60 1014 10 N 0
Ieri h: 11:51 coperto Coperto 5 -3 56 1014 10 O/SO 25.9
Ieri h: 10:51 coperto Coperto 5 -2 60 1014 10 O/SO 22.2
Ieri h: 10:20 molto_nuvoloso Molto Nuvoloso 5 -2 60 1014 10 N 0
Ieri h: 09:51 molto_nuvoloso Molto Nuvoloso 4 -3 60 1014 10 N 11.1
Ieri h: 09:40 molto_nuvoloso Molto Nuvoloso 4 -3 60 1014 10 N 0
Ieri h: 08:51 coperto Coperto 4 -3 60 1013 10 O/SO 16.7